Starlink 5764

operational
NORAD ID: 55602 Int'l Des: 2023-020 Owner: SPXS Country: US Constellation: starlink
LEOCIRCULAR

Starlink 5764について

説明を読み込み中...

リアルタイム位置

3D地球を読み込み中...

次回通過

高度履歴

Altitude vs Time

uPlot chart will show altitude changes over time

軌道要素

1 55602U 23020AK 26062.23546063 .00000962 00000-0 86265-4 0 9998
2 55602 43.0040 27.1272 0001128 275.6071 84.4643 15.02542965168094
Epoch: Mar 3, 2026 • Age: 28 hours

現在のステータス

高度 561.3 km
速度 7.59 km/s
衛星直下点 36.22°N, 152.36°W
打ち上げ日 Feb 12, 2023
運用期間 3 years
タイプ internet

技術仕様

分類 Payload
質量 305.00 kg
乾燥質量 290.00 kg
総質量 305.00 kg
長さ 0.20 m
直径 2.80 m
スパン 9.00 m
形状 Box + pan
製造者 SPXS
バスタイプ Starlink
フェーズステータス In Orbit
所有者/国 SPXS/US

大規模コンステレーション

Loading constellations...